IV3ONZ Weather Reports


time (UTC)temp
C
wind
direction
speed
KPH
gust
KPH
rain 1hr
cm
rain 24hr
cm
rain mn
cm
humidity
%
barometer
mb
20260906073003 27 82 6.4 17.7 0.00 0.00 0.00 46 1025.1
20260906072716 27 82 8.0 17.7 0.00 0.00 0.00 47 1025.1
20260906072003 27 87 11.3 24.1 0.00 0.00 0.00 46 1025.0
20260906071503 27 80 11.3 24.1 0.00 0.00 0.00 46 1025.0
20260906071004 27 80 11.3 25.7 0.00 0.00 0.00 47 1024.7
20260906070503 27 83 12.9 25.7 0.00 0.00 0.00 47 1024.4
20260906070004 27 79 12.9 29.0 0.00 0.00 0.00 46 1024.7
20260906065503 27 76 14.5 29.0 0.00 0.00 0.00 46 1024.6
20260906065003 26 72 16.1 29.0 0.00 0.00 0.00 47 1024.4
20260906064503 26 73 16.1 30.6 0.00 0.00 0.00 46 1024.3
20260906064003 26 76 14.5 30.6 0.00 0.00 0.00 47 1024.3
20260906063504 26 73 14.5 25.7 0.00 0.00 0.00 48 1024.4
20260906063214 26 73 14.5 25.7 0.00 0.00 0.00 47 1024.3
20260906062716 26 72 16.1 30.6 0.00 0.00 0.00 47 1024.1
20260906062003 26 77 17.7 40.2 0.00 0.00 0.00 47 1024.4
20260906061504 26 77 19.3 40.2 0.00 0.00 0.00 47 1024.3
20260906061003 26 75 20.9 38.6 0.00 0.00 0.00 48 1024.2
20260906060504 26 76 17.7 38.6 0.00 0.00 0.00 48 1024.5
20260906060003 26 80 16.1 33.8 0.00 0.00 0.00 48 1024.5
20260906055714 26 82 16.1 33.8 0.00 0.00 0.00 48 1024.3
20260906055003 26 81 17.7 38.6 0.00 0.00 0.00 48 1024.3
20260906054504 26 81 17.7 38.6 0.00 0.00 0.00 48 1024.1
20260906054003 26 75 16.1 35.4 0.00 0.00 0.00 48 1023.8
20260906053716 26 78 16.1 35.4 0.00 0.00 0.00 48 1024.1
20260906053003 26 81 17.7 35.4 0.00 0.00 0.00 47 1024.0
20260906052503 26 75 16.1 29.0 0.00 0.00 0.00 48 1023.8
20260906052003 26 79 16.1 29.0 0.00 0.00 0.00 47 1024.0
20260906051503 26 82 14.5 29.0 0.00 0.00 0.00 47 1023.9
20260906051004 25 79 16.1 30.6 0.00 0.00 0.00 47 1023.7
20260906050503 26 78 16.1 37.0 0.00 0.00 0.00 48 1023.8
20260906050003 26 79 14.5 37.0 0.00 0.00 0.00 47 1023.7
20260906045504 25 82 14.5 30.6 0.00 0.00 0.00 48 1023.9
20260906045003 26 84 16.1 30.6 0.00 0.00 0.00 48 1023.7
20260906044503 25 86 12.9 30.6 0.00 0.00 0.00 48 1023.7
20260906044003 25 80 9.7 24.1 0.00 0.00 0.00 48 1023.5
20260906043717 25 79 9.7 20.9 0.00 0.00 0.00 49 1023.8
20260906043005 25 79 9.7 20.9 0.00 0.00 0.00 49 1023.6
20260906042504 25 78 9.7 22.5 0.00 0.00 0.00 50 1023.5
20260906042216 25 75 9.7 22.5 0.00 0.00 0.00 50 1023.8
20260906041714 25 74 11.3 22.5 0.00 0.00 0.00 50 1023.7
20260906041006 25 81 6.4 20.9 0.00 0.00 0.00 50 1023.6
20260906040503 25 80 3.2 14.5 0.00 0.00 0.00 51 1023.6
20260906040004 25 90 3.2 9.7 0.00 0.00 0.00 51 1023.4
20260906035503 25 94 1.6 4.8 0.00 0.00 0.00 52 1023.4
20260906035213 25 103 1.6 4.8 0.00 0.00 0.00 52 1023.5
20260906034503 25 108 1.6 9.7 0.00 0.00 0.00 52 1023.2
20260906034004 25 104 3.2 11.3 0.00 0.00 0.00 52 1023.2
20260906033504 25 92 6.4 17.7 0.00 0.00 0.00 51 1023.3
20260906033003 25 85 8.0 17.7 0.00 0.00 0.00 51 1023.3
20260906032503 25 85 9.7 20.9 0.00 0.00 0.00 51 1023.1
20260906032003 25 86 11.3 25.7 0.00 0.00 0.00 51 1023.1
20260906031504 26 87 12.9 25.7 0.00 0.00 0.00 51 1023.1
20260906031004 26 90 14.5 29.0 0.00 0.00 0.00 51 1023.0
20260906030503 26 89 14.5 29.0 0.00 0.00 0.00 50 1022.9
20260906030004 26 84 12.9 24.1 0.00 0.00 0.00 50 1023.1
20260906025503 26 85 12.9 24.1 0.00 0.00 0.00 50 1022.8
20260906025004 26 93 9.7 22.5 0.00 0.00 0.00 50 1022.8
20260906024503 26 90 8.0 22.5 0.00 0.00 0.00 50 1022.9
20260906024003 26 80 9.7 22.5 0.00 0.00 0.00 49 1022.8
20260906023504 26 75 11.3 22.5 0.00 0.00 0.00 49 1023.0
20260906023003 26 72 9.7 22.5 0.00 0.00 0.00 49 1022.7
20260906022503 26 73 11.3 22.5 0.00 0.00 0.00 48 1022.7
20260906022003 26 74 11.3 24.1 0.00 0.00 0.00 49 1022.7
20260906021503 26 77 11.3 25.7 0.00 0.00 0.00 48 1022.7
20260906021003 26 76 12.9 29.0 0.00 0.00 0.00 48 1022.8
20260906020504 27 78 16.1 33.8 0.00 0.00 0.00 47 1022.7
20260906020004 27 86 14.5 33.8 0.00 0.00 0.00 47 1022.8
20260906015504 26 87 11.3 22.5 0.00 0.00 0.00 47 1022.6
20260906015215 26 86 11.3 24.1 0.00 0.00 0.00 47 1022.8
20260906014503 26 77 12.9 30.6 0.00 0.00 0.00 48 1022.7
20260906014005 26 81 12.9 30.6 0.00 0.00 0.00 47 1022.5
20260906013503 27 82 14.5 33.8 0.00 0.00 0.00 47 1022.5
20260906013003 27 82 14.5 33.8 0.00 0.00 0.00 47 1022.7
20260906012503 27 86 14.5 29.0 0.00 0.00 0.00 47 1022.7
20260906012003 27 84 16.1 29.0 0.00 0.00 0.00 47 1022.7
20260906011716 27 78 16.1 29.0 0.00 0.00 0.00 46 1022.5
20260906011003 27 81 16.1 40.2 0.00 0.00 0.00 46 1022.8
20260906010503 27 82 16.1 40.2 0.00 0.00 0.00 46 1022.8
20260906010215 27 81 17.7 40.2 0.00 0.00 0.00 45 1022.6
20260906005503 27 85 17.7 33.8 0.00 0.00 0.00 46 1022.6
20260906005003 27 83 16.1 33.8 0.00 0.00 0.00 46 1022.6
20260906004504 27 81 14.5 29.0 0.00 0.00 0.00 46 1022.7
20260906004003 27 79 14.5 29.0 0.00 0.00 0.00 47 1022.7
20260906003503 27 82 11.3 24.1 0.00 0.00 0.00 48 1022.6
20260906003004 26 85 8.0 20.9 0.00 0.00 0.00 50 1022.7
20260906002715 26 87 6.4 20.9 0.00 0.00 0.00 50 1022.6
20260906002213 26 82 6.4 14.5 0.00 0.00 0.00 50 1022.5
20260906001503 26 83 8.0 14.5 0.00 0.00 0.00 50 1022.8
20260906001003 26 78 8.0 20.9 0.00 0.00 0.00 51 1022.7
20260906000505 26 71 9.7 22.5 0.00 0.00 0.00 50 1022.8
20260906000011 26 70 9.7 24.1 0.00 0.00 0.00 51 1022.5
20260905235504 26 71 11.3 24.1 0.00 0.00 0.00 50 1022.4
20260905235003 26 71 12.9 24.1 0.00 0.00 0.00 51 1022.4
20260905234503 26 77 12.9 24.1 0.00 0.00 0.00 51 1022.5
20260905234003 26 82 11.3 24.1 0.00 0.00 0.00 51 1022.3
20260905233715 26 84 12.9 24.1 0.00 0.00 0.00 51 1022.2
20260905233004 26 77 12.9 22.5 0.00 0.00 0.00 51 1022.0
20260905232503 26 75 11.3 22.5 0.00 0.00 0.00 51 1022.2
20260905232003 26 74 11.3 24.1 0.00 0.00 0.00 51 1022.0
20260905231503 26 70 11.3 24.1 0.00 0.00 0.00 52 1022.1
20260905231003 26 71 11.3 24.1 0.00 0.00 0.00 51 1022.0
20260905230503 26 75 11.3 20.9 0.00 0.00 0.00 52 1022.0
20260905230004 26 76 11.3 24.1 0.00 0.00 0.00 52 1022.3
20260905225714 26 81 12.9 24.1 0.00 0.00 0.00 52 1022.1
20260905225003 26 92 12.9 24.1 0.00 0.00 0.00 51 1022.3
20260905224503 26 89 12.9 24.1 0.00 0.00 0.00 51 1022.2
20260905224004 26 92 12.9 24.1 0.00 0.00 0.00 51 1022.2
20260905223503 26 94 11.3 20.9 0.00 0.00 0.00 52 1022.1
20260905223214 26 91 11.3 20.9 0.00 0.00 0.00 52 1022.1
20260905222716 26 87 9.7 17.7 0.00 0.00 0.00 52 1022.0
20260905222003 26 92 8.0 14.5 0.00 0.00 0.00 53 1022.0
20260905221503 26 91 6.4 12.9 0.00 0.00 0.00 54 1022.1
20260905221003 26 85 6.4 12.9 0.00 0.00 0.00 54 1021.7
20260905220504 26 86 6.4 14.5 0.00 0.00 0.00 55 1021.7
20260905220004 26 92 6.4 14.5 0.00 0.00 0.00 54 1021.7
20260905215504 26 103 6.4 12.9 0.00 0.00 0.00 54 1022.0
20260905215004 26 111 4.8 11.3 0.00 0.00 0.00 55 1021.9
20260905214504 25 114 1.6 9.7 0.00 0.00 0.00 56 1022.1
20260905214213 26 92 1.6 9.7 0.00 0.00 0.00 56 1022.0
20260905213504 25 108 1.6 6.4 0.00 0.00 0.00 56 1022.2
20260905213004 26 117 1.6 12.9 0.00 0.00 0.00 56 1021.9
20260905212503 26 87 4.8 14.5 0.00 0.00 0.00 54 1022.2
20260905212003 26 74 8.0 14.5 0.00 0.00 0.00 53 1021.9
20260905211504 26 71 8.0 16.1 0.00 0.00 0.00 53 1021.9
20260905211003 26 66 9.7 16.1 0.00 0.00 0.00 53 1021.9
20260905210503 26 68 9.7 20.9 0.00 0.00 0.00 53 1021.8
20260905210217 26 71 8.0 20.9 0.00 0.00 0.00 54 1022.0
20260905205503 26 73 6.4 14.5 0.00 0.00 0.00 54 1021.9
20260905205218 26 76 4.8 14.5 0.00 0.00 0.00 54 1021.9
20260905204504 26 70 3.2 14.5 0.00 0.00 0.00 55 1021.8
20260905204004 25 88 1.6 9.7 0.00 0.00 0.00 56 1021.8
20260905203503 25 108 0.0 3.2 0.00 0.00 0.00 59 1021.9
20260905203004 25 157 1.6 3.2 0.00 0.00 0.00 60 1021.8
20260905202713 25 163 1.6 3.2 0.00 0.00 0.00 60 1021.8
20260905202003 25 63 1.6 3.2 0.00 0.00 0.00 59 1021.5
20260905201503 25 93 0.0 1.6 0.00 0.00 0.00 58 1021.3
20260905201005 25 102 0.0 1.6 0.00 0.00 0.00 59 1021.3
20260905200715 25 107 0.0 1.6 0.00 0.00 0.00 59 1021.4
20260905200003 25 133 0.0 1.6 0.00 0.00 0.00 59 1021.2
20260905195715 26 135 0.0 1.6 0.00 0.00 0.00 59 1021.4
20260905195004 26 139 0.0 1.6 0.00 0.00 0.00 57 1021.3
20260905194503 26 104 0.0 6.4 0.00 0.00 0.00 55 1021.3
20260905194003 26 92 1.6 11.3 0.00 0.00 0.00 54 1021.2
20260905193504 26 96 1.6 11.3 0.00 0.00 0.00 54 1021.3
20260905193004 26 126 0.0 3.2 0.00 0.00 0.00 54 1021.1
20260905192503 26 129 0.0 3.2 0.00 0.00 0.00 53 1021.4
20260905192004 26 115 0.0 4.8 0.00 0.00 0.00 53 1021.1
20260905191504 26 97 1.6 6.4 0.00 0.00 0.00 53 1021.2
20260905191003 26 102 1.6 6.4 0.00 0.00 0.00 53 1021.0
20260905190503 26 102 1.6 4.8 0.00 0.00 0.00 54 1021.0
20260905190004 26 92 3.2 4.8 0.00 0.00 0.00 53 1020.9
20260905185504 26 113 1.6 4.8 0.00 0.00 0.00 54 1021.0
20260905185003 26 133 3.2 6.4 0.00 0.00 0.00 54 1020.9
20260905184504 27 131 3.2 6.4 0.00 0.00 0.00 54 1020.6
20260905184215 27 140 3.2 6.4 0.00 0.00 0.00 53 1020.6
20260905183504 27 139 4.8 11.3 0.00 0.00 0.00 52 1020.6
20260905183003 27 113 6.4 12.9 0.00 0.00 0.00 52 1020.6
20260905182503 27 107 6.4 12.9 0.00 0.00 0.00 52 1020.3
20260905182004 27 117 4.8 12.9 0.00 0.00 0.00 53 1020.3
20260905181504 27 131 4.8 9.7 0.00 0.00 0.00 54 1020.4
20260905181004 27 130 4.8 11.3 0.00 0.00 0.00 55 1020.4
20260905180504 27 131 4.8 11.3 0.00 0.00 0.00 57 1020.2
20260905180214 27 131 6.4 11.3 0.00 0.00 0.00 59 1020.0
20260905175717 27 131 4.8 9.7 0.00 0.00 0.00 64 1020.0
20260905175003 27 113 3.2 4.8 0.00 0.00 0.00 74 1020.1
20260905174503 27 112 3.2 4.8 0.00 0.00 0.00 75 1020.1
20260905174216 27 117 1.6 4.8 0.00 0.00 0.00 75 1020.1
20260905173714 27 122 1.6 4.8 0.00 0.00 0.00 75 1019.9
20260905173004 27 133 3.2 6.4 0.00 0.00 0.00 74 1020.0
20260905172504 27 133 4.8 6.4 0.00 0.00 0.00 72 1019.9
20260905172003 27 118 4.8 9.7 0.00 0.00 0.00 71 1019.7
20260905171504 27 121 4.8 11.3 0.00 0.00 0.00 70 1019.5
20260905171003 28 144 4.8 11.3 0.00 0.00 0.00 69 1019.5
20260905170504 28 160 4.8 9.7 0.00 0.00 0.00 69 1019.4
20260905170004 28 165 4.8 9.7 0.00 0.00 0.00 69 1019.6
20260905165503 28 176 4.8 9.7 0.00 0.00 0.00 67 1019.5
20260905165003 28 171 3.2 9.7 0.00 0.00 0.00 67 1019.5
20260905164503 28 168 3.2 9.7 0.00 0.00 0.00 66 1019.3
20260905164003 28 183 4.8 9.7 0.00 0.00 0.00 65 1019.3
20260905163503 28 201 6.4 11.3 0.00 0.00 0.00 64 1019.2
20260905163003 28 204 6.4 11.3 0.00 0.00 0.00 65 1019.2
20260905162715 28 201 6.4 11.3 0.00 0.00 0.00 65 1019.0
20260905162003 29 169 4.8 9.7 0.00 0.00 0.00 64 1019.1
20260905161716 29 155 4.8 11.3 0.00 0.00 0.00 64 1018.9
20260905161003 29 148 6.4 11.3 0.00 0.00 0.00 65 1018.9
20260905160503 29 147 6.4 12.9 0.00 0.00 0.00 65 1018.9
20260905160215 29 141 6.4 14.5 0.00 0.00 0.00 64 1019.0
20260905155504 29 137 6.4 14.5 0.00 0.00 0.00 64 1019.1
20260905155003 30 140 6.4 12.9 0.00 0.00 0.00 62 1018.8
20260905154503 29 146 6.4 12.9 0.00 0.00 0.00 63 1018.9
20260905154003 30 155 6.4 12.9 0.00 0.00 0.00 62 1018.9
20260905153503 29 152 6.4 12.9 0.00 0.00 0.00 62 1018.7
20260905153004 30 149 6.4 12.9 0.00 0.00 0.00 60 1019.0
20260905152503 30 156 6.4 12.9 0.00 0.00 0.00 61 1019.0
20260905152003 30 168 6.4 12.9 0.00 0.00 0.00 60 1018.9
20260905151504 30 183 6.4 12.9 0.00 0.00 0.00 62 1019.0
20260905151003 30 192 6.4 12.9 0.00 0.00 0.00 60 1018.9
20260905150503 30 190 6.4 11.3 0.00 0.00 0.00 60 1018.8
20260905150004 30 171 6.4 12.9 0.00 0.00 0.00 59 1018.9
20260905145503 30 166 6.4 14.5 0.00 0.00 0.00 61 1018.8
20260905145003 30 185 8.0 14.5 0.00 0.00 0.00 59 1018.9
20260905144503 30 192 6.4 12.9 0.00 0.00 0.00 59 1018.8
20260905144003 31 191 6.4 14.5 0.00 0.00 0.00 59 1018.7
20260905143715 31 187 6.4 14.5 0.00 0.00 0.00 59 1018.7
20260905143003 31 171 6.4 12.9 0.00 0.00 0.00 60 1018.8
20260905142503 31 191 6.4 12.9 0.00 0.00 0.00 60 1018.5
20260905142003 30 213 6.4 12.9 0.00 0.00 0.00 60 1018.7
20260905141504 31 214 4.8 11.3 0.00 0.00 0.00 54 1018.8
20260905141003 32 201 3.2 11.3 0.00 0.00 0.00 54 1018.8
20260905140503 31 206 4.8 12.9 0.00 0.00 0.00 54 1018.8
20260905140004 31 213 6.4 12.9 0.00 0.00 0.00 54 1018.8
20260905135503 31 212 6.4 12.9 0.00 0.00 0.00 53 1018.7
20260905135003 31 213 6.4 11.3 0.00 0.00 0.00 54 1018.8
20260905134715 31 213 4.8 11.3 0.00 0.00 0.00 55 1018.7
20260905134003 31 183 4.8 12.9 0.00 0.00 0.00 54 1018.8
20260905133716 31 181 6.4 12.9 0.00 0.00 0.00 57 1018.9
20260905133003 31 197 4.8 11.3 0.00 0.00 0.00 55 1018.8
20260905132717 31 187 4.8 11.3 0.00 0.00 0.00 56 1018.7
20260905132003 31 197 3.2 9.7 0.00 0.00 0.00 54 1018.9
20260905131504 31 153 3.2 9.7 0.00 0.00 0.00 51 1018.9
20260905131003 31 146 4.8 9.7 0.00 0.00 0.00 53 1018.9
20260905130503 31 155 4.8 11.3 0.00 0.00 0.00 52 1018.9
20260905130006 30 154 4.8 11.3 0.00 0.00 0.00 55 1019.1
20260905125503 31 181 3.2 11.3 0.00 0.00 0.00 52 1019.1
20260905125003 31 205 4.8 12.9 0.00 0.00 0.00 50 1019.1
20260905124503 31 198 6.4 12.9 0.00 0.00 0.00 53 1019.2
20260905124003 31 187 4.8 12.9 0.00 0.00 0.00 54 1019.2
20260905123717 31 188 4.8 11.3 0.00 0.00 0.00 54 1019.1
20260905123215 31 208 4.8 11.3 0.00 0.00 0.00 51 1019.4
20260905122503 32 162 3.2 6.4 0.00 0.00 0.00 51 1019.4
20260905122003 31 167 1.6 6.4 0.00 0.00 0.00 52 1019.4
20260905121503 31 186 3.2 9.7 0.00 0.00 0.00 51 1019.5
20260905121003 30 201 4.8 9.7 0.00 0.00 0.00 53 1019.2
20260905120503 31 227 4.8 11.3 0.00 0.00 0.00 53 1019.5
20260905120004 30 238 4.8 11.3 0.00 0.00 0.00 53 1019.4
20260905115503 31 187 4.8 11.3 0.00 0.00 0.00 54 1019.5
20260905115003 31 194 4.8 12.9 0.00 0.00 0.00 52 1019.7
20260905114503 30 245 4.8 12.9 0.00 0.00 0.00 53 1019.5
20260905114003 30 223 3.2 11.3 0.00 0.00 0.00 52 1019.7
20260905113717 31 211 4.8 11.3 0.00 0.00 0.00 51 1019.6
20260905113215 30 191 4.8 11.3 0.00 0.00 0.00 49 1019.5
20260905112503 31 210 3.2 9.7 0.00 0.00 0.00 46 1019.5
20260905112003 31 170 3.2 11.3 0.00 0.00 0.00 46 1019.6
20260905111503 30 154 3.2 11.3 0.00 0.00 0.00 48 1019.5
20260905111217 30 175 4.8 11.3 0.00 0.00 0.00 49 1019.5
20260905110503 30 193 3.2 9.7 0.00 0.00 0.00 47 1019.8
20260905110003 31 200 4.8 9.7 0.00 0.00 0.00 42 1019.7
20260905105503 30 229 4.8 9.7 0.00 0.00 0.00 42 1019.8
20260905105219 30 229 4.8 9.7 0.00 0.00 0.00 41 1019.9
20260905104503 30 145 3.2 6.4 0.00 0.00 0.00 39 1019.7
20260905104003 30 161 3.2 6.4 0.00 0.00 0.00 39 1019.7
20260905103503 30 187 4.8 6.4 0.00 0.00 0.00 39 1019.7
20260905103216 30 187 4.8 6.4 0.00 0.00 0.00 39 1019.3
20260905102504 30 176 3.2 6.4 0.00 0.00 0.00 38 1019.8
20260905102003 30 159 1.6 4.8 0.00 0.00 0.00 37 1019.7
20260905101503 30 147 1.6 6.4 0.00 0.00 0.00 38 1019.9
20260905101004 30 168 4.8 9.7 0.00 0.00 0.00 37 1019.9
20260905100503 30 171 4.8 9.7 0.00 0.00 0.00 38 1019.6
20260905100003 30 161 1.6 6.4 0.00 0.00 0.00 37 1019.8
20260905095503 30 179 1.6 6.4 0.00 0.00 0.00 39 1019.7
20260905095003 30 152 3.2 6.4 0.00 0.00 0.00 44 1019.7
20260905094503 29 129 3.2 6.4 0.00 0.00 0.00 45 1019.8
20260905094216 30 151 3.2 6.4 0.00 0.00 0.00 44 1019.7
20260905093503 30 185 3.2 6.4 0.00 0.00 0.00 45 1019.9
20260905093004 29 208 3.2 9.7 0.00 0.00 0.00 45 1019.7
20260905092715 29 207 3.2 9.7 0.00 0.00 0.00 46 1019.8
20260905092003 29 195 1.6 4.8 0.00 0.00 0.00 47 1019.9
20260905091503 29 172 1.6 6.4 0.00 0.00 0.00 43 1019.6
20260905091214 29 169 1.6 6.4 0.00 0.00 0.00 45 1019.8
20260905090503 29 152 1.6 6.4 0.00 0.00 0.00 46 1019.7
20260905090003 29 168 3.2 6.4 0.00 0.00 0.00 45 1019.4
20260905085503 28 176 3.2 6.4 0.00 0.00 0.00 45 1019.8
20260905085003 30 167 1.6 4.8 0.00 0.00 0.00 44 1019.7
20260905084503 29 161 1.6 4.8 0.00 0.00 0.00 40 1019.6
20260905084004 30 149 1.6 4.8 0.00 0.00 0.00 39 1019.7
20260905083503 29 150 1.6 4.8 0.00 0.00 0.00 40 1019.5
20260905083004 29 172 1.6 6.4 0.00 0.00 0.00 43 1019.5
20260905082715 28 169 1.6 6.4 0.00 0.00 0.00 47 1019.7
20260905082003 29 139 0.0 3.2 0.00 0.00 0.00 46 1019.6
20260905081503 27 137 0.0 4.8 0.00 0.00 0.00 49 1019.6
20260905081003 28 330 1.6 4.8 0.00 0.00 0.00 51 1019.6
20260905080503 27 304 3.2 4.8 0.00 0.00 0.00 52 1019.4
20260905080215 27 281 3.2 4.8 0.00 0.00 0.00 53 1019.2
20260905075503 27 234 1.6 4.8 0.00 0.00 0.00 54 1019.3
20260905075003 27 170 1.6 3.2 0.00 0.00 0.00 57 1019.2
20260905074503 26 215 3.2 4.8 0.00 0.00 0.00 57 1019.2
20260905074003 26 325 3.2 4.8 0.00 0.00 0.00 57 1019.3
20260905073503 26 312 1.6 4.8 0.00 0.00 0.00 58 1019.2